Location: Gad�tanya
(48.0500°N, 20.8500°E)
Time: 11:23:03
(UTC+00:00)

Cosmos 2181 Rocket - Pass Details

Date: 05 July 2020
Orbit: 951 x 1016 km, 82.9° (Epoch: 14 August)

Event Time Altitude Azimuth Distance (km) Brightness Sun altitude
Rises 19:34:48 0° 354° (N) 3,740 8.0 -7.9°
Reaches altitude 10° 19:37:27 10° 359° (N) 2,777 7.2 -8.2°
Maximum altitude 19:43:39 51° 75° (ENE) 1,222 4.4 -8.8°
Enters shadow 19:49:28 11° 150° (SSE) 2,630 5.6 -9.5°
